CSN8031 ZGSZ-MMMX

Flight info

Callsign CSN8031
Flight time N/A
Altitude 33100
Route IDUMA2 IDUMA W41 OMDUP G471 EGEDA/K0932S1040 G471 PLT/K0932S1010 A599 JTN G327 LASAN/K0911S1070 G327 LAMEN/N0490F350 A593 SADLI Y590 BEDAR Y591 FUE Y23 KASTE Y81 TASOT Y57 POROT Y809 IDLAN Y812 ADNAP OTR7 EMRON DCT 41N160E/N0481F370 45N170E 45N180E 46N170W 45N160W/N0482F390 42N150W 39N140W 36N130W DCT AUDIA/N0479F410 DCT RZS J126 LAX J1 OCN DCT TCATE DCT PPE UT10 ZCL UT130 DARAN DARAN3A
Aircraft A359/H-SDE2E3GHIJ3J4J5LM1ORWXY/LB1D1

Departure

Time 2026-04-27 21:48
Airport Shenzhen Bao'an International Airport (ZGSZ)

Arrival

Time N/A
Airport Mexico City Benito Juárez International Airport (MMMX)
Time Latitude Longitude Altitude Speed Heading
2026-04-27 21:19 22.63240 113.80258 23 ft 0 kts 151°
2026-04-27 21:39 22.63251 113.80251 23 ft 4 kts 150°
2026-04-27 21:39 22.63275 113.80238 24 ft 5 kts 159°
2026-04-27 21:39 22.63298 113.80233 23 ft 4 kts 188°
2026-04-27 21:40 22.63322 113.80241 24 ft 4 kts 225°
2026-04-27 21:40 22.63333 113.80265 24 ft 6 kts 257°
2026-04-27 21:40 22.63337 113.80280 23 ft 2 kts 244°
2026-04-27 21:40 22.63337 113.80279 23 ft 0 kts 244°
2026-04-27 21:42 22.63336 113.80278 23 ft 3 kts 244°
2026-04-27 21:42 22.63309 113.80219 22 ft 14 kts 244°
2026-04-27 21:43 22.63278 113.80153 20 ft 15 kts 243°
2026-04-27 21:43 22.63228 113.80048 19 ft 16 kts 242°
2026-04-27 21:43 22.63208 113.79941 14 ft 15 kts 306°
2026-04-27 21:43 22.63297 113.79881 13 ft 16 kts 333°
2026-04-27 21:44 22.63413 113.79817 14 ft 22 kts 333°
2026-04-27 21:44 22.63566 113.79736 14 ft 27 kts 334°
2026-04-27 21:44 22.63748 113.79638 19 ft 31 kts 333°
2026-04-27 21:44 22.63954 113.79527 18 ft 33 kts 333°
2026-04-27 21:45 22.64157 113.79417 18 ft 32 kts 333°
2026-04-27 21:45 22.64355 113.79310 19 ft 31 kts 333°
2026-04-27 21:45 22.64552 113.79205 14 ft 31 kts 334°
2026-04-27 21:45 22.64743 113.79097 13 ft 31 kts 332°
2026-04-27 21:46 22.64926 113.78994 15 ft 28 kts 333°
2026-04-27 21:46 22.65099 113.78897 15 ft 27 kts 333°
2026-04-27 21:46 22.65264 113.78807 16 ft 26 kts 333°
2026-04-27 21:46 22.65423 113.78718 13 ft 20 kts 332°
2026-04-27 21:47 22.65497 113.78650 12 ft 13 kts 284°
2026-04-27 21:47 22.65467 113.78566 12 ft 12 kts 240°
2026-04-27 21:47 22.65411 113.78507 12 ft 11 kts 184°
2026-04-27 21:47 22.65348 113.78537 13 ft 11 kts 152°
2026-04-27 21:48 22.65127 113.78659 19 ft 69 kts 153°
2026-04-27 21:48 22.64484 113.79012 15 ft 136 kts 153°
2026-04-27 21:48 22.63467 113.79570 123 ft 183 kts 153°
2026-04-27 21:48 22.62328 113.80147 901 ft 178 kts 164°
2026-04-27 21:49 22.61155 113.79911 1654 ft 177 kts 205°
2026-04-27 21:49 22.60025 113.79284 1818 ft 188 kts 200°
2026-04-27 21:49 22.58779 113.78764 2040 ft 196 kts 195°
2026-04-27 21:49 22.57457 113.78323 2286 ft 204 kts 192°
2026-04-27 21:50 22.56041 113.77955 2542 ft 211 kts 189°
2026-04-27 21:50 22.54566 113.77666 2780 ft 221 kts 189°
2026-04-27 21:50 22.53031 113.77171 2903 ft 240 kts 200°
2026-04-27 21:50 22.51484 113.76358 3132 ft 251 kts 203°
2026-04-27 21:51 22.49894 113.75635 3744 ft 244 kts 200°
2026-04-27 21:51 22.48529 113.74631 4331 ft 243 kts 231°
2026-04-27 21:51 22.48028 113.72912 4768 ft 249 kts 272°
2026-04-27 21:51 22.48203 113.71047 5203 ft 250 kts 273°
2026-04-27 21:52 22.48418 113.69176 5616 ft 252 kts 276°
2026-04-27 21:52 22.49070 113.67404 5986 ft 260 kts 306°
2026-04-27 21:52 22.50540 113.66258 6297 ft 271 kts 337°
2026-04-27 21:52 22.52452 113.65960 6411 ft 287 kts
2026-04-27 21:53 22.54450 113.66110 6851 ft 287 kts
2026-04-27 21:53 22.56436 113.66273 7302 ft 287 kts
2026-04-27 21:53 22.58437 113.66407 7717 ft 290 kts
2026-04-27 21:53 22.60472 113.66498 8061 ft 296 kts 359°
2026-04-27 21:54 22.62544 113.66539 8424 ft 301 kts 358°
2026-04-27 21:54 22.64656 113.66562 8832 ft 304 kts 359°
2026-04-27 21:54 22.66752 113.66889 9265 ft 309 kts 19°
2026-04-27 21:54 22.68479 113.68263 9687 ft 313 kts 51°
2026-04-27 21:55 22.69828 113.70104 10176 ft 313 kts 50°
2026-04-27 21:55 22.71261 113.71922 10364 ft 323 kts 48°